LFMTLFLY

Guest
Details From LFMT - Montpellier/Mediterranee
To LFLY - Lyon Bron
Flight Number -
Tags generated
Created
Modified
Stats Distance 136 nm / 252 km
Max Altitude 8,300 ft / 2,530 m
Waypoints 3
Social Downloads 24
Likes 0
Share

Download

Looking for another format? Having issues loading an existing format? Contact us
Advertisement - Login to hide

Notes

Basic altitude profile: - Ascent Rate: 2500ft/min - Ascent Speed: 250kts - Cruise Altitude: 35000ft - Cruise Speed: 420kts - Descent Rate: 1500ft/min - Descent Speed: 250kts Options: - Use NATs: yes - Use PACOTS: yes - Use low airways: yes - Use high airways: yes

Route

LFMT NELEN LFLY

ID Type Via Altitude (ft/m) Position (lat/lon) Dist (leg/tot) Name
O LFMT APT - 0 / 0 43.57626 / 3.96326 - / 0 nm Montpellier/Mediterranee
NELEN FIX - 8,300 / 2,530 45.11861 / 4.61167 96 / 96 nm
O LFLY APT - 0 / 0 45.72717 / 4.94427 39 / 135 nm Lyon Bron

Altitude Profile

Advertisement - Login to hide

LFMT

Details ICAO LFMT (MPL)
Name Montpellier/Mediterranee
Region France
Timezone Europe/Paris (UTC+2.0)
Stats Elevation 17 ft / 5 m (AMSL)
Location 43.576200° 3.963250°
Runways 2
Magnetic Variation 2.002° E

METAR

LFMT 220500Z AUTO 27012KT CAVOK 19/13 Q1018 NOSIG

Decode

TAF

TAF LFMT 220200Z 2203/2303 28010KT CAVOK TEMPO 2210/2216 30020G30KT TEMPO 2216/2224 SHRA BKN080

Decode

Departure Runways

ID Width Length Bearing (true/mag) Surface Threshold Overrun Markings Lighting
12L 164 ft / 50 m 8,539 ft / 2,603 m 124.83° / 122.83° ASPHALT 0 ft / 0 m 0 ft / 0 m PREC-APP CENTERLINE EDGE THRESHOLD
12R 98 ft / 30 m 3,612 ft / 1,101 m 124.80° / 122.80° ASPHALT 328 ft / 100 m 0 ft / 0 m VISUAL
30L 98 ft / 30 m 3,612 ft / 1,101 m 304.81° / 302.81° ASPHALT 0 ft / 0 m 0 ft / 0 m VISUAL
30R 164 ft / 50 m 8,539 ft / 2,603 m 304.85° / 302.85° ASPHALT 0 ft / 0 m 0 ft / 0 m PREC-APP CENTERLINE EDGE THRESHOLD ALSF-I

LFLY

Details ICAO LFLY (LYN)
Name Lyon Bron
Region France
Timezone Europe/Paris (UTC+2.0)
Stats Elevation 659 ft / 201 m (AMSL)
Location 45.727200° 4.944290°
Runways 1
Magnetic Variation 2.236° E

METAR

LFLY 220500Z AUTO 24002KT 9999 BKN042 OVC050 17/16 Q1018 NOSIG

Decode

TAF

TAF LFLY 212300Z 2200/2224 VRB04KT CAVOK PROB30 TEMPO 2203/2205 FEW035TCU BECMG 2205/2207 36008KT PROB30 TEMPO 2212/2215 4000 SHRA FEW035CB BKN040 PROB40 TEMPO 2218/2221 4000 SHRA BKN030CB PROB30 TEMPO 2218/2221 2000 TSRA

Decode

Destination Runways

ID Width Length Bearing (true/mag) Surface Threshold Overrun Markings Lighting
16 148 ft / 45 m 5,975 ft / 1,821 m 163.45° / 161.21° ASPHALT 984 ft / 300 m 0 ft / 0 m PREC-APP EDGE THRESHOLD REIL-OMNI
34 148 ft / 45 m 5,975 ft / 1,821 m 343.45° / 341.22° ASPHALT 984 ft / 300 m 0 ft / 0 m PREC-APP EDGE THRESHOLD REIL-OMNI

Approach Navaids

Runway Type Ident Frequency Range Bearing (true/mag) Slope Elevation
16 DME LBO 109.95 MHz 18 nm / 33 km - - 680 ft / 207 m (AMSL)
34 DME LY 111.30 MHz 18 nm / 33 km - - 715 ft / 218 m (AMSL)

Popular Alternatives